Alliance, NE

12:47 AM MST on November 19, 2017 (GMT -0700)
Alliance Municipal

Weather History for KAIA - March, 2013

Change the Weather History Date:

Monday, March 18, 2013

  Actual Average Record
Temperature  
Mean Temperature 29 °F 38 °F  
Max Temperature 43 °F 52 °F 80 °F (2012)
Min Temperature 15 °F 23 °F -6 °F (1965)
Degree Days  
Heating Degree Days 36 28  
Month to date heating degree days 493 551  
Since 1 July heating degree days 5606 5955  
Cooling Degree Days 0 0  
Month to date cooling degree days 0 0  
Year to date cooling degree days 0 0  
Moisture  
Dew Point 14 °F    
Average Humidity 56    
Maximum Humidity 88    
Minimum Humidity 24    
Precipitation  
Precipitation 0.00 in 0.03 in 0.74 in (2003)
Month to date precipitation T 0.27  
Year to date precipitation 0.52 0.83  
Sea Level Pressure  
Sea Level Pressure 29.94 in    
Wind  
Wind Speed 13 mph (NW)    
Max Wind Speed 29 mph    
Max Gust Speed 36 mph    
Visibility 10 miles    
Events      
T = Trace of Precipitation, MM = Missing Value Source: NWS Daily Summary

Daily Weather History Graph

Daily Weather History Graph

Search for Another Location

Airport or City:

Trip Planner

Search our weather history database for the weather conditions in past years. The results will help you decide how hot, cold, wet, or windy it might be!

Date:

Astronomy

Mar. 18, 2013 Rise Set
Actual Time 6:57 AM MDT 7:01 PM MDT
Civil Twilight 6:29 AM MDT 7:29 PM MDT
Nautical Twilight 5:57 AM MDT 8:02 PM MDT
Astronomical Twilight 5:23 AM MDT 8:35 PM MDT
Moon 10:53 AM MDT (3/18) 1:08 AM MDT (3/18)
Length of Visible Light 12h 59m
Length of Day
12h 04m
Waxing Crescent, 41% of the Moon is Illuminated
Mar 18
Waxing Crescent
Mar 19
First Quarter
Mar 27
Full
Apr 2
Last Quarter
Apr 10
New

Hourly Weather History & Observations

Time (MDT) Temp. Windchill Dew Point Humidity Pressure Visibility Wind Dir Wind Speed Gust Speed Precip Events Conditions
12:53 AM 23.0 °F 13.1 °F 19.0 °F 85% 29.85 in 10.0 mi West 9.2 mph - N/A   Mostly Cloudy
1:53 AM 19.0 °F 9.0 °F 16.0 °F 88% 29.84 in 10.0 mi West 8.1 mph - N/A   Clear
2:53 AM 19.0 °F 7.5 °F 15.1 °F 85% 29.84 in 10.0 mi West 10.4 mph - N/A   Clear
3:53 AM 19.9 °F 8.6 °F 16.0 °F 85% 29.84 in 10.0 mi West 10.4 mph - N/A   Clear
4:53 AM 19.9 °F 7.3 °F 16.0 °F 85% 29.86 in 10.0 mi WSW 12.7 mph - N/A   Clear
5:53 AM 19.9 °F 7.3 °F 15.1 °F 81% 29.86 in 10.0 mi West 12.7 mph - N/A   Clear
6:53 AM 19.0 °F 11.1 °F 12.9 °F 77% 29.93 in 10.0 mi WNW 5.8 mph - N/A   Clear
7:53 AM 23.0 °F 13.9 °F 17.1 °F 78% 29.96 in 10.0 mi WNW 8.1 mph - N/A   Clear
8:53 AM 28.9 °F 17.3 °F 19.0 °F 67% 29.96 in 10.0 mi NNW 16.1 mph - N/A   Clear
9:53 AM 32.0 °F 19.2 °F 16.0 °F 52% 29.98 in 10.0 mi NW 23.0 mph 28.8 mph N/A   Clear
10:53 AM 35.1 °F 23.5 °F 12.9 °F 40% 29.99 in 10.0 mi NNW 21.9 mph 34.5 mph N/A   Clear
11:53 AM 37.9 °F 27.1 °F 12.0 °F 35% 29.99 in 10.0 mi NNW 23.0 mph 29.9 mph N/A   Clear
12:53 PM 39.9 °F 29.2 °F 10.0 °F 29% 29.97 in 10.0 mi NW 25.3 mph 33.4 mph N/A   Clear
1:53 PM 41.0 °F 31.6 °F 10.0 °F 28% 29.97 in 10.0 mi WNW 20.7 mph 27.6 mph N/A   Clear
2:53 PM 41.0 °F 31.6 °F 8.1 °F 26% 29.94 in 10.0 mi NNW 20.7 mph 27.6 mph N/A   Clear
3:53 PM 42.1 °F 34.9 °F 8.1 °F 25% 29.92 in 10.0 mi NNW 13.8 mph 21.9 mph N/A   Clear
4:53 PM 41.0 °F 33.5 °F 8.1 °F 26% 29.91 in 10.0 mi NNE 13.8 mph - N/A   Clear
5:53 PM 37.9 °F 30.9 °F 9.0 °F 30% 29.93 in 10.0 mi North 10.4 mph - N/A   Overcast
6:53 PM 36.0 °F 28.5 °F 10.0 °F 34% 29.95 in 10.0 mi NNE 10.4 mph - N/A   Overcast
7:53 PM 34.0 °F 25.5 °F 19.0 °F 54% 29.98 in 10.0 mi NW 11.5 mph - N/A   Overcast
8:53 PM 33.1 °F 27.7 °F 18.0 °F 54% 29.99 in 10.0 mi WNW 5.8 mph - N/A   Overcast
9:53 PM 34.0 °F 29.8 °F 19.0 °F 54% 30.01 in 10.0 mi NW 4.6 mph - N/A   Overcast
10:53 PM 30.0 °F 21.1 °F 17.1 °F 59% 29.99 in 10.0 mi SSW 10.4 mph - N/A   Scattered Clouds
11:53 PM 28.0 °F - 18.0 °F 66% 29.99 in 10.0 mi Calm Calm - N/A   Mostly Cloudy